When you browse on this site, cookies collect data to enhance your experience and personalize the content and advertising you see.
Visit our Privacy Policy to learn more. By continuing to use the site, you agree to this use of cookies and data.
  • In Latvia
  • List of Countries
  • For 7 days
  • Water Temperature
  • Satellite Maps
  • Weather Map
  • Weather Widgets
  • user-avatar
    Login

    Hourly Weather Turlock

    Today, 14 December, Friday

    Time Temperature Precipitation Wind Pressure Humidity
    00:00 +9°C° 0 mm 2 mps 763 mmHg 71%
    01:00 +9°C° 0 mm 2 mps 762 mmHg 69%
    02:00 +9°C° 0 mm 2 mps 762 mmHg 66%
    03:00 +10°C° 0 mm 2 mps 762 mmHg 62%
    04:00 +10°C° 0 mm 2 mps 762 mmHg 58%
    05:00 +10°C° 0 mm 2 mps 762 mmHg 55%
    06:00 +12°C° 0 mm 2 mps 761 mmHg 52%
    07:00 +12°C° 0 mm 2 mps 761 mmHg 49%
    08:00 +13°C° 0 mm 2 mps 761 mmHg 48%
    09:00 +13°C° 0 mm 3 mps 761 mmHg 47%
    10:00 +14°C° 0 mm 3 mps 761 mmHg 46%
    11:00 +16°C° 0 mm 3 mps 761 mmHg 47%
    12:00 +17°C° 0 mm 3 mps 761 mmHg 47%
    13:00 +19°C° 0 mm 3 mps 760 mmHg 47%
    14:00 +18°C° 0 mm 3 mps 760 mmHg 50%
    15:00 +18°C° 0 mm 3 mps 760 mmHg 53%
    16:00 +17°C° 0 mm 3 mps 760 mmHg 57%
    17:00 +16°C° 0.1 mm 3 mps 761 mmHg 60%
    18:00 +15°C° 0.1 mm 2 mps 761 mmHg 64%
    19:00 +14°C° 0.1 mm 2 mps 762 mmHg 67%
    20:00 +14°C° 0.2 mm 2 mps 762 mmHg 69%
    21:00 +14°C° 0.2 mm 2 mps 762 mmHg 70%
    22:00 +13°C° 0.2 mm 1 mps 763 mmHg 72%
    23:00 +13°C° 0 mm 1 mps 763 mmHg 71%

    Tomorrow, 15 December, Saturday

    Time Temperature Precipitation Wind Pressure Humidity
    00:00 +13°C° 0 mm 1 mps 763 mmHg 70%
    01:00 +13°C° 0 mm 1 mps 763 mmHg 70%
    02:00 +13°C° 0 mm 1 mps 762 mmHg 69%
    03:00 +13°C° 0 mm 1 mps 762 mmHg 68%
    04:00 +13°C° 0 mm 1 mps 762 mmHg 68%
    05:00 +12°C° 0 mm 1 mps 762 mmHg 68%
    06:00 +12°C° 0 mm 1 mps 762 mmHg 68%
    07:00 +11°C° 0 mm 1 mps 762 mmHg 68%
    08:00 +13°C° 0 mm 1 mps 762 mmHg 63%
    09:00 +14°C° 0 mm 1 mps 762 mmHg 58%
    10:00 +16°C° 0 mm 2 mps 762 mmHg 53%
    11:00 +17°C° 0 mm 2 mps 761 mmHg 50%
    12:00 +18°C° 0 mm 2 mps 761 mmHg 48%
    13:00 +19°C° 0 mm 2 mps 760 mmHg 45%
    14:00 +19°C° 0 mm 2 mps 760 mmHg 48%
    15:00 +18°C° 0 mm 2 mps 760 mmHg 51%
    16:00 +18°C° 0 mm 2 mps 760 mmHg 53%
    17:00 +17°C° 0 mm 2 mps 761 mmHg 56%
    18:00 +15°C° 0 mm 2 mps 761 mmHg 59%
    19:00 +14°C° 0 mm 2 mps 762 mmHg 61%
    20:00 +14°C° 0 mm 2 mps 762 mmHg 62%
    21:00 +13°C° 0 mm 2 mps 762 mmHg 62%
    22:00 +13°C° 0 mm 2 mps 762 mmHg 62%
    23:00 +13°C° 0 mm 2 mps 762 mmHg 62%

    Day after tomorrow, 16 December, Sunday

    Time Temperature Precipitation Wind Pressure Humidity
    00:00 +13°C° 0 mm 2 mps 763 mmHg 61%
    01:00 +13°C° 0 mm 2 mps 763 mmHg 60%
    02:00 +13°C° 0 mm 2 mps 763 mmHg 60%
    03:00 +13°C° 0 mm 2 mps 762 mmHg 60%
    04:00 +12°C° 0 mm 2 mps 762 mmHg 60%
    05:00 +12°C° 0 mm 2 mps 762 mmHg 59%
    06:00 +13°C° 0 mm 2 mps 762 mmHg 58%
    07:00 +12°C° 0 mm 3 mps 762 mmHg 58%
    08:00 +13°C° 0.1 mm 2 mps 762 mmHg 58%
    09:00 +14°C° 0.1 mm 2 mps 762 mmHg 57%
    10:00 +15°C° 0.1 mm 2 mps 762 mmHg 57%
    11:00 +15°C° 0.3 mm 2 mps 762 mmHg 60%
    12:00 +15°C° 0.3 mm 2 mps 762 mmHg 63%
    13:00 +15°C° 0.3 mm 2 mps 761 mmHg 65%
    14:00 +15°C° 0.3 mm 2 mps 761 mmHg 66%
    15:00 +15°C° 0.3 mm 2 mps 761 mmHg 67%
    16:00 +14°C° 0.3 mm 3 mps 760 mmHg 67%
    17:00 +14°C° 1 mm 2 mps 760 mmHg 70%
    18:00 +14°C° 1 mm 2 mps 761 mmHg 73%
    19:00 +14°C° 1 mm 2 mps 761 mmHg 76%
    20:00 +13°C° 3.8 mm 3 mps 761 mmHg 78%
    21:00 +12°C° 3.8 mm 3 mps 761 mmHg 81%
    22:00 +12°C° 3.8 mm 3 mps 762 mmHg 83%
    23:00 +12°C° 2.9 mm 3 mps 762 mmHg 85%

    17 December, Monday

    Time Temperature Precipitation Wind Pressure Humidity
    00:00 +12°C° 2.9 mm 4 mps 762 mmHg 87%
    01:00 +13°C° 2.9 mm 4 mps 762 mmHg 89%
    02:00 +12°C° 0.8 mm 3 mps 762 mmHg 89%
    03:00 +12°C° 0.8 mm 3 mps 762 mmHg 89%
    04:00 +12°C° 0.8 mm 3 mps 762 mmHg 89%
    05:00 +13°C° 0.3 mm 2 mps 763 mmHg 90%
    06:00 +12°C° 0.3 mm 2 mps 763 mmHg 91%
    07:00 +12°C° 0.3 mm 1 mps 764 mmHg 92%
    08:00 +13°C° 0 mm 1 mps 764 mmHg 87%
    09:00 +14°C° 0 mm 1 mps 765 mmHg 82%
    10:00 +15°C° 0 mm 1 mps 765 mmHg 77%
    11:00 +16°C° 0 mm 1 mps 765 mmHg 72%
    12:00 +16°C° 0 mm 2 mps 765 mmHg 67%
    13:00 +17°C° 0 mm 2 mps 764 mmHg 63%
    14:00 +17°C° 0 mm 2 mps 764 mmHg 65%
    15:00 +16°C° 0 mm 2 mps 764 mmHg 66%
    16:00 +16°C° 0 mm 2 mps 764 mmHg 68%
    17:00 +14°C° 0 mm 2 mps 764 mmHg 72%
    18:00 +13°C° 0 mm 2 mps 765 mmHg 75%
    19:00 +12°C° 0 mm 2 mps 765 mmHg 78%
    20:00 +12°C° 0 mm 2 mps 765 mmHg 79%
    21:00 +10°C° 0 mm 2 mps 765 mmHg 80%
    22:00 +11°C° 0 mm 1 mps 766 mmHg 81%
    23:00 +11°C° 0 mm 1 mps 766 mmHg 81%

    18 December, Tuesday

    Time Temperature Precipitation Wind Pressure Humidity
    00:00 +10°C° 0 mm 1 mps 766 mmHg 81%
    01:00 +10°C° 0 mm 1 mps 766 mmHg 81%
    02:00 +10°C° 0 mm 1 mps 766 mmHg 81%
    03:00 +10°C° 0 mm 1 mps 766 mmHg 81%
    04:00 +9°C° 0 mm 1 mps 766 mmHg 80%
    05:00 +9°C° 0 mm 1 mps 766 mmHg 80%
    06:00 +9°C° 0 mm 1 mps 766 mmHg 80%
    07:00 +9°C° 0 mm 1 mps 766 mmHg 80%
    08:00 +10°C° 0 mm 1 mps 766 mmHg 74%
    09:00 +12°C° 0 mm 1 mps 766 mmHg 68%
    10:00 +14°C° 0 mm 1 mps 766 mmHg 63%
    11:00 +15°C° 0 mm 1 mps 766 mmHg 59%
    12:00 +16°C° 0 mm 1 mps 766 mmHg 55%
    13:00 +18°C° 0 mm 1 mps 765 mmHg 52%
    14:00 +16°C° 0 mm 1 mps 765 mmHg 55%
    15:00 +16°C° 0 mm 1 mps 765 mmHg 59%
    16:00 +15°C° 0 mm 1 mps 765 mmHg 62%
    17:00 +14°C° 0 mm 1 mps 765 mmHg 66%
    18:00 +13°C° 0 mm 1 mps 765 mmHg 70%
    19:00 +11°C° 0 mm 1 mps 766 mmHg 75%
    20:00 +11°C° 0 mm 1 mps 766 mmHg 75%
    21:00 +11°C° 0 mm 1 mps 766 mmHg 76%
    22:00 +10°C° 0 mm 0 mps 766 mmHg 76%
    23:00 +9°C° 0 mm 0 mps 766 mmHg 76%

    19 December, Wednesday

    Time Temperature Precipitation Wind Pressure Humidity
    00:00 +9°C° 0 mm 0 mps 766 mmHg 76%
    01:00 +9°C° 0 mm 0 mps 766 mmHg 76%
    02:00 +9°C° 0 mm 0 mps 766 mmHg 76%
    03:00 +9°C° 0 mm 1 mps 766 mmHg 75%
    04:00 +9°C° 0 mm 1 mps 766 mmHg 75%
    05:00 +9°C° 0 mm 1 mps 766 mmHg 76%
    06:00 +9°C° 0 mm 1 mps 766 mmHg 76%
    07:00 +9°C° 0 mm 1 mps 766 mmHg 76%
    08:00 +10°C° 0 mm 1 mps 766 mmHg 70%
    09:00 +12°C° 0 mm 1 mps 766 mmHg 65%
    10:00 +14°C° 0 mm 1 mps 766 mmHg 59%
    11:00 +15°C° 0 mm 1 mps 766 mmHg 56%
    12:00 +16°C° 0 mm 1 mps 765 mmHg 53%
    13:00 +18°C° 0 mm 1 mps 764 mmHg 49%
    14:00 +18°C° 0 mm 1 mps 764 mmHg 53%
    15:00 +16°C° 0 mm 1 mps 764 mmHg 57%
    16:00 +16°C° 0 mm 1 mps 764 mmHg 61%
    17:00 +15°C° 0 mm 1 mps 764 mmHg 63%
    18:00 +12°C° 0 mm 0 mps 764 mmHg 66%
    19:00 +11°C° 0 mm 0 mps 765 mmHg 68%
    20:00 +11°C° 0 mm 0 mps 765 mmHg 68%
    21:00 +11°C° 0 mm 0 mps 765 mmHg 67%
    22:00 +12°C° 0 mm 1 mps 765 mmHg 67%
    23:00 +11°C° 0 mm 1 mps 765 mmHg 67%
    Show more